When you browse on this site, cookies collect data to enhance your experience and personalize the content and advertising you see.
Visit our Privacy Policy to learn more. By continuing to use the site, you agree to this use of cookies and data.
  • In Österreich
  • Länderverzeichnis
  • Für 7 Tage
  • Wassertemperatur
  • Wetterkarte
  • News
  • Widgets
  • user-avatar
    Anmelden

    Stündliche Wetter Takeo

    Heute, 30 Mai, Samstag

    Zeit Temperatur Niederschläge Wind Luftdruck Luftfeuchtigkeit
    00:00 +30°C° 0.4 mm 2 m/S 757 mmHg 79%
    01:00 +29°C° 0 mm 3 m/S 757 mmHg 81%
    02:00 +29°C° 0.2 mm 2 m/S 757 mmHg 82%
    03:00 +29°C° 0.2 mm 2 m/S 756 mmHg 83%
    04:00 +29°C° 0.2 mm 2 m/S 756 mmHg 85%
    05:00 +29°C° 0 mm 1 m/S 757 mmHg 83%
    06:00 +30°C° 0 mm 1 m/S 757 mmHg 81%
    07:00 +28°C° 0 mm 0 m/S 758 mmHg 77%
    08:00 +31°C° 0 mm 1 m/S 758 mmHg 71%
    09:00 +33°C° 0 mm 1 m/S 758 mmHg 65%
    10:00 +35°C° 0 mm 2 m/S 758 mmHg 58%
    11:00 +35°C° 0.3 mm 2 m/S 757 mmHg 57%
    12:00 +36°C° 0.3 mm 2 m/S 757 mmHg 55%
    13:00 +37°C° 0.3 mm 2 m/S 757 mmHg 53%
    14:00 +37°C° 0.3 mm 2 m/S 756 mmHg 53%
    15:00 +37°C° 0.3 mm 2 m/S 756 mmHg 53%
    16:00 +37°C° 0.3 mm 2 m/S 755 mmHg 52%
    17:00 +35°C° 0.3 mm 2 m/S 755 mmHg 57%
    18:00 +34°C° 0.3 mm 2 m/S 756 mmHg 63%
    19:00 +33°C° 0.3 mm 3 m/S 756 mmHg 68%
    20:00 +32°C° 0 mm 2 m/S 756 mmHg 69%
    21:00 +31°C° 0 mm 2 m/S 757 mmHg 71%
    22:00 +31°C° 0 mm 2 m/S 757 mmHg 72%
    23:00 +30°C° 0 mm 2 m/S 757 mmHg 73%

    Morgen, 31 Mai, Sonntag

    Zeit Temperatur Niederschläge Wind Luftdruck Luftfeuchtigkeit
    00:00 +30°C° 0 mm 2 m/S 757 mmHg 74%
    01:00 +30°C° 0 mm 2 m/S 757 mmHg 75%
    02:00 +30°C° 0 mm 1 m/S 757 mmHg 77%
    03:00 +30°C° 0 mm 1 m/S 757 mmHg 78%
    04:00 +30°C° 0 mm 1 m/S 757 mmHg 79%
    05:00 +30°C° 0 mm 1 m/S 757 mmHg 78%
    06:00 +30°C° 0 mm 1 m/S 758 mmHg 77%
    07:00 +28°C° 0 mm 0 m/S 758 mmHg 77%
    08:00 +32°C° 0 mm 1 m/S 758 mmHg 72%
    09:00 +34°C° 0 mm 2 m/S 758 mmHg 66%
    10:00 +35°C° 0 mm 2 m/S 758 mmHg 61%
    11:00 +36°C° 0.6 mm 2 m/S 757 mmHg 60%
    12:00 +36°C° 0.6 mm 3 m/S 757 mmHg 58%
    13:00 +36°C° 0.6 mm 3 m/S 757 mmHg 57%
    14:00 +36°C° 0.8 mm 3 m/S 756 mmHg 57%
    15:00 +36°C° 0.8 mm 3 m/S 755 mmHg 58%
    16:00 +36°C° 0.8 mm 3 m/S 754 mmHg 59%
    17:00 +35°C° 1.1 mm 3 m/S 755 mmHg 65%
    18:00 +34°C° 1.1 mm 3 m/S 755 mmHg 70%
    19:00 +31°C° 1.1 mm 2 m/S 756 mmHg 76%
    20:00 +31°C° 0.2 mm 2 m/S 756 mmHg 77%
    21:00 +31°C° 0.2 mm 2 m/S 757 mmHg 77%
    22:00 +30°C° 0.2 mm 2 m/S 757 mmHg 78%
    23:00 +30°C° 0 mm 2 m/S 757 mmHg 79%

    übermorgen, 1 Juni, Montag

    Zeit Temperatur Niederschläge Wind Luftdruck Luftfeuchtigkeit
    00:00 +30°C° 0 mm 2 m/S 756 mmHg 80%
    01:00 +30°C° 0 mm 1 m/S 756 mmHg 81%
    02:00 +29°C° 0 mm 1 m/S 756 mmHg 82%
    03:00 +29°C° 0 mm 1 m/S 756 mmHg 83%
    04:00 +29°C° 0 mm 1 m/S 756 mmHg 84%
    05:00 +29°C° 0 mm 1 m/S 756 mmHg 82%
    06:00 +30°C° 0 mm 1 m/S 756 mmHg 81%
    07:00 +30°C° 0 mm 1 m/S 757 mmHg 79%
    08:00 +32°C° 0 mm 1 m/S 757 mmHg 73%
    09:00 +34°C° 0 mm 2 m/S 757 mmHg 66%
    10:00 +35°C° 0 mm 3 m/S 757 mmHg 60%
    11:00 +36°C° 0.1 mm 3 m/S 757 mmHg 57%
    12:00 +37°C° 0.1 mm 3 m/S 756 mmHg 54%
    13:00 +38°C° 0.1 mm 4 m/S 756 mmHg 50%
    14:00 +37°C° 0.2 mm 4 m/S 755 mmHg 52%
    15:00 +37°C° 0.2 mm 5 m/S 754 mmHg 53%
    16:00 +37°C° 0.2 mm 5 m/S 754 mmHg 55%
    17:00 +35°C° 0 mm 4 m/S 754 mmHg 60%
    18:00 +34°C° 0 mm 3 m/S 755 mmHg 65%
    19:00 +32°C° 0 mm 2 m/S 755 mmHg 70%
    20:00 +31°C° 0 mm 3 m/S 755 mmHg 71%
    21:00 +31°C° 0 mm 3 m/S 756 mmHg 73%
    22:00 +30°C° 0 mm 3 m/S 756 mmHg 75%
    23:00 +30°C° 0 mm 3 m/S 756 mmHg 76%

    2 Juni, Dienstag

    Zeit Temperatur Niederschläge Wind Luftdruck Luftfeuchtigkeit
    00:00 +30°C° 0 mm 2 m/S 756 mmHg 78%
    01:00 +29°C° 0 mm 2 m/S 756 mmHg 79%
    02:00 +29°C° 0 mm 2 m/S 756 mmHg 80%
    03:00 +29°C° 0 mm 2 m/S 755 mmHg 81%
    04:00 +29°C° 0 mm 2 m/S 755 mmHg 82%
    05:00 +29°C° 0 mm 2 m/S 756 mmHg 81%
    06:00 +29°C° 0 mm 2 m/S 756 mmHg 79%
    07:00 +30°C° 0 mm 2 m/S 756 mmHg 78%
    08:00 +31°C° 0 mm 3 m/S 757 mmHg 71%
    09:00 +34°C° 0 mm 3 m/S 757 mmHg 64%
    10:00 +35°C° 0 mm 3 m/S 757 mmHg 57%
    11:00 +36°C° 0 mm 3 m/S 756 mmHg 53%
    12:00 +37°C° 0 mm 3 m/S 756 mmHg 49%
    13:00 +38°C° 0 mm 3 m/S 755 mmHg 44%
    14:00 +38°C° 0 mm 4 m/S 755 mmHg 47%
    15:00 +37°C° 0 mm 4 m/S 754 mmHg 51%
    16:00 +36°C° 0 mm 5 m/S 754 mmHg 54%
    17:00 +35°C° 0.1 mm 5 m/S 754 mmHg 60%
    18:00 +34°C° 0.1 mm 5 m/S 754 mmHg 65%
    19:00 +32°C° 0.1 mm 4 m/S 754 mmHg 71%
    20:00 +32°C° 0 mm 4 m/S 755 mmHg 73%
    21:00 +31°C° 0 mm 3 m/S 756 mmHg 75%
    22:00 +30°C° 0 mm 3 m/S 756 mmHg 76%
    23:00 +30°C° 0 mm 3 m/S 756 mmHg 78%

    3 Juni, Mittwoch

    Zeit Temperatur Niederschläge Wind Luftdruck Luftfeuchtigkeit
    00:00 +30°C° 0 mm 3 m/S 755 mmHg 79%
    01:00 +29°C° 0 mm 2 m/S 755 mmHg 81%
    02:00 +29°C° 0 mm 2 m/S 755 mmHg 82%
    03:00 +29°C° 0 mm 2 m/S 755 mmHg 83%
    04:00 +29°C° 0 mm 2 m/S 754 mmHg 84%
    05:00 +29°C° 0 mm 2 m/S 755 mmHg 82%
    06:00 +30°C° 0 mm 3 m/S 755 mmHg 81%
    07:00 +30°C° 0 mm 3 m/S 755 mmHg 79%
    08:00 +33°C° 0.2 mm 3 m/S 756 mmHg 72%
    09:00 +34°C° 0.2 mm 3 m/S 756 mmHg 66%
    10:00 +35°C° 0.2 mm 4 m/S 756 mmHg 59%
    11:00 +36°C° 0.7 mm 4 m/S 755 mmHg 58%
    12:00 +36°C° 0.7 mm 4 m/S 755 mmHg 57%
    13:00 +37°C° 0.7 mm 5 m/S 754 mmHg 56%
    14:00 +36°C° 1.5 mm 5 m/S 754 mmHg 58%
    15:00 +36°C° 1.5 mm 5 m/S 753 mmHg 60%
    16:00 +35°C° 1.5 mm 5 m/S 753 mmHg 62%
    17:00 +34°C° 0.2 mm 5 m/S 753 mmHg 65%
    18:00 +33°C° 0.2 mm 4 m/S 753 mmHg 69%
    19:00 +31°C° 0.2 mm 3 m/S 754 mmHg 73%
    20:00 +31°C° 0 mm 3 m/S 754 mmHg 74%
    21:00 +30°C° 0 mm 3 m/S 755 mmHg 76%
    22:00 +30°C° 0 mm 2 m/S 755 mmHg 77%
    23:00 +30°C° 0 mm 2 m/S 755 mmHg 78%

    4 Juni, Donnerstag

    Zeit Temperatur Niederschläge Wind Luftdruck Luftfeuchtigkeit
    00:00 +29°C° 0 mm 2 m/S 754 mmHg 79%
    01:00 +29°C° 0 mm 2 m/S 754 mmHg 80%
    02:00 +29°C° 0 mm 2 m/S 754 mmHg 81%
    03:00 +29°C° 0 mm 2 m/S 754 mmHg 82%
    04:00 +29°C° 0 mm 2 m/S 754 mmHg 83%
    05:00 +29°C° 0.1 mm 2 m/S 754 mmHg 81%
    06:00 +30°C° 0.1 mm 2 m/S 754 mmHg 79%
    07:00 +30°C° 0.1 mm 3 m/S 755 mmHg 77%
    08:00 +33°C° 0 mm 3 m/S 755 mmHg 70%
    09:00 +34°C° 0 mm 4 m/S 755 mmHg 63%
    10:00 +36°C° 0 mm 4 m/S 756 mmHg 56%
    11:00 +37°C° 0 mm 4 m/S 755 mmHg 54%
    12:00 +37°C° 0 mm 4 m/S 754 mmHg 52%
    13:00 +39°C° 0 mm 5 m/S 754 mmHg 49%
    14:00 +37°C° 0.4 mm 5 m/S 753 mmHg 52%
    15:00 +37°C° 0.4 mm 5 m/S 753 mmHg 54%
    16:00 +36°C° 0.4 mm 5 m/S 752 mmHg 57%
    17:00 +35°C° 0 mm 5 m/S 753 mmHg 61%
    18:00 +34°C° 0 mm 4 m/S 753 mmHg 65%
    19:00 +32°C° 0 mm 4 m/S 753 mmHg 70%
    20:00 +31°C° 0 mm 3 m/S 754 mmHg 72%
    21:00 +31°C° 0 mm 3 m/S 754 mmHg 74%
    22:00 +30°C° 0 mm 3 m/S 755 mmHg 76%
    23:00 +30°C° 0 mm 3 m/S 755 mmHg 77%
    Mehr zeigen